owner,sensor,date,latitude,longitude,vertical_datum,sea_water_practical_salinity,qcFlag 
NERRS,ioos:station:NOAA.NERRS:apaebwq:1,2016-01-01T03:45:00Z,29.7858,-84.8752,2.13,2.4,1111122 
NERRS,ioos:station:NOAA.NERRS:apaebwq:1,2016-01-01T04:45:00Z,29.7858,-84.8752,2.05,2.3,1111122 
NERRS,ioos:station:NOAA.NERRS:apaebwq:1,2016-01-01T05:45:00Z,29.7858,-84.8752,1.98,2.2,1111122 
NERRS,ioos:station:NOAA.NERRS:apaebwq:1,2016-01-01T06:45:00Z,29.7858,-84.8752,1.92,2.3,1111122 
NERRS,ioos:station:NOAA.NERRS:apaebwq:1,2016-01-01T07:45:00Z,29.7858,-84.8752,1.88,2.3,1111122 
NERRS,ioos:station:NOAA.NERRS:apaebwq:1,2016-01-01T08:45:00Z,29.7858,-84.8752,1.87,2.4,1111122 
NERRS,ioos:station:NOAA.NERRS:apaebwq:1,2016-01-01T09:45:00Z,29.7858,-84.8752,1.93,2.4,1111122 
NERRS,ioos:station:NOAA.NERRS:apaebwq:1,2016-01-01T10:45:00Z,29.7858,-84.8752,2.03,2.2,1111122 
NERRS,ioos:station:NOAA.NERRS:apaebwq:1,2016-01-01T11:45:00Z,29.7858,-84.8752,2.08,2.0,1111122 
NERRS,ioos:station:NOAA.NERRS:apaebwq:1,2016-01-01T12:45:00Z,29.7858,-84.8752,2.1,2.2,1111122 
NERRS,ioos:station:NOAA.NERRS:apaebwq:1,2016-01-01T13:45:00Z,29.7858,-84.8752,2.1,2.2,1111122 
NERRS,ioos:station:NOAA.NERRS:apaebwq:1,2016-01-01T14:45:00Z,29.7858,-84.8752,2.06,2.2,1111122 
NERRS,ioos:station:NOAA.NERRS:apaebwq:1,2016-01-01T15:45:00Z,29.7858,-84.8752,2.02,2.0,1111122 
NERRS,ioos:station:NOAA.NERRS:apaebwq:1,2016-01-01T16:45:00Z,29.7858,-84.8752,1.96,2.2,1111122 
NERRS,ioos:station:NOAA.NERRS:apaebwq:1,2016-01-01T17:45:00Z,29.7858,-84.8752,1.89,2.2,1111122 
NERRS,ioos:station:NOAA.NERRS:apaebwq:1,2016-01-02T20:45:00Z,29.7858,-84.8752,1.8,1.9,1111122 
NERRS,ioos:station:NOAA.NERRS:apaebwq:1,2016-01-02T21:45:00Z,29.7858,-84.8752,1.86,2.0,1111122 
NERRS,ioos:station:NOAA.NERRS:apaebwq:1,2016-01-02T22:45:00Z,29.7858,-84.8752,1.94,0.9,1111122 
NERRS,ioos:station:NOAA.NERRS:apaebwq:1,2016-01-02T23:45:00Z,29.7858,-84.8752,2.0,0.8,1111122 
NERRS,ioos:station:NOAA.NERRS:apaebwq:1,2016-01-03T01:45:00Z,29.7858,-84.8752,2.14,0.3,1111122 
NERRS,ioos:station:NOAA.NERRS:apaebwq:1,2016-01-03T02:45:00Z,29.7858,-84.8752,2.15,0.1,1111122 
NERRS,ioos:station:NOAA.NERRS:apaebwq:1,2016-01-03T03:45:00Z,29.7858,-84.8752,2.17,0.1,1111122 
NERRS,ioos:station:NOAA.NERRS:apaebwq:1,2016-01-03T04:45:00Z,29.7858,-84.8752,2.1,0.7,1111122 
NERRS,ioos:station:NOAA.NERRS:apaebwq:1,2016-01-03T05:45:00Z,29.7858,-84.8752,2.02,0.9,1111122 
NERRS,ioos:station:NOAA.NERRS:apaebwq:1,2016-01-03T06:45:00Z,29.7858,-84.8752,1.93,1.0,1111122 
NERRS,ioos:station:NOAA.NERRS:apaebwq:1,2016-01-03T07:45:00Z,29.7858,-84.8752,1.86,1.2,1111122 
NERRS,ioos:station:NOAA.NERRS:apaebwq:1,2016-01-03T08:45:00Z,29.7858,-84.8752,1.81,1.1,1111122 
NERRS,ioos:station:NOAA.NERRS:apaebwq:1,2016-01-03T09:45:00Z,29.7858,-84.8752,1.79,1.0,1111122 
NERRS,ioos:station:NOAA.NERRS:apaebwq:1,2016-01-03T10:45:00Z,29.7858,-84.8752,1.77,1.1,1111122 
NERRS,ioos:station:NOAA.NERRS:apaebwq:1,2016-01-03T11:45:00Z,29.7858,-84.8752,1.78,1.1,1111122 
NERRS,ioos:station:NOAA.NERRS:apaebwq:1,2016-01-03T12:45:00Z,29.7858,-84.8752,1.81,1.1,1111122 
NERRS,ioos:station:NOAA.NERRS:apaebwq:1,2016-01-03T13:45:00Z,29.7858,-84.8752,1.87,0.9,1111122 
NERRS,ioos:station:NOAA.NERRS:apaebwq:1,2016-01-03T14:45:00Z,29.7858,-84.8752,1.97,1.1,1111122 
NERRS,ioos:station:NOAA.NERRS:apaebwq:1,2016-01-03T15:45:00Z,29.7858,-84.8752,2.01,0.9,1111122 
NERRS,ioos:station:NOAA.NERRS:apaebwq:1,2016-01-03T16:45:00Z,29.7858,-84.8752,2.0,1.1,1111122 
NERRS,ioos:station:NOAA.NERRS:apaebwq:1,2016-01-03T17:45:00Z,29.7858,-84.8752,2.0,1.0,1111122 
NERRS,ioos:station:NOAA.NERRS:apaebwq:1,2016-01-03T18:45:00Z,29.7858,-84.8752,1.98,1.0,1111122 
NERRS,ioos:station:NOAA.NERRS:apaebwq:1,2016-01-03T20:45:00Z,29.7858,-84.8752,1.92,0.9,1111122 
NERRS,ioos:station:NOAA.NERRS:apaebwq:1,2016-01-03T21:45:00Z,29.7858,-84.8752,1.94,0.8,1111122 
NERRS,ioos:station:NOAA.NERRS:apaebwq:1,2016-01-03T22:45:00Z,29.7858,-84.8752,2.01,0.8,1111122 
NERRS,ioos:station:NOAA.NERRS:apaebwq:1,2016-01-04T00:45:00Z,29.7858,-84.8752,2.02,0.8,1111122 
NERRS,ioos:station:NOAA.NERRS:apaebwq:1,2016-01-04T01:45:00Z,29.7858,-84.8752,2.06,0.7,1111122 
NERRS,ioos:station:NOAA.NERRS:apaebwq:1,2016-01-04T02:45:00Z,29.7858,-84.8752,2.09,0.7,1111122 
NERRS,ioos:station:NOAA.NERRS:apaebwq:1,2016-01-04T03:45:00Z,29.7858,-84.8752,2.11,0.7,1111122 
NERRS,ioos:station:NOAA.NERRS:apaebwq:1,2016-01-04T04:45:00Z,29.7858,-84.8752,2.12,0.7,1111122 
NERRS,ioos:station:NOAA.NERRS:apaebwq:1,2016-01-04T05:45:00Z,29.7858,-84.8752,2.06,0.7,1111122 
NERRS,ioos:station:NOAA.NERRS:apaebwq:1,2016-01-04T06:45:00Z,29.7858,-84.8752,1.98,0.8,1111122 
NERRS,ioos:station:NOAA.NERRS:apaebwq:1,2016-01-04T07:45:00Z,29.7858,-84.8752,1.89,0.9,1111122 
NERRS,ioos:station:NOAA.NERRS:apaebwq:1,2016-01-04T08:45:00Z,29.7858,-84.8752,1.82,1.0,1111122 
NERRS,ioos:station:NOAA.NERRS:apaebwq:1,2016-01-04T09:45:00Z,29.7858,-84.8752,1.76,1.0,1111122 
NERRS,ioos:station:NOAA.NERRS:apaebwq:1,2016-01-04T10:45:00Z,29.7858,-84.8752,1.72,1.0,1111122 
NERRS,ioos:station:NOAA.NERRS:apaebwq:1,2016-01-04T12:45:00Z,29.7858,-84.8752,1.72,1.3,1111122 
NERRS,ioos:station:NOAA.NERRS:apaebwq:1,2016-01-04T13:45:00Z,29.7858,-84.8752,1.73,1.2,1111122 
NERRS,ioos:station:NOAA.NERRS:apaebwq:1,2016-01-04T14:45:00Z,29.7858,-84.8752,1.76,1.1,1111122 
NERRS,ioos:station:NOAA.NERRS:apaebwq:1,2016-01-04T15:45:00Z,29.7858,-84.8752,1.8,1.0,1111122 
NERRS,ioos:station:NOAA.NERRS:apaebwq:1,2016-01-04T16:45:00Z,29.7858,-84.8752,1.88,1.0,1111122 
NERRS,ioos:station:NOAA.NERRS:apaebwq:1,2016-01-04T17:45:00Z,29.7858,-84.8752,1.94,0.9,1111122 
NERRS,ioos:station:NOAA.NERRS:apaebwq:1,2016-01-04T18:45:00Z,29.7858,-84.8752,1.95,0.9,1111122 
NERRS,ioos:station:NOAA.NERRS:apaebwq:1,2016-01-04T19:45:00Z,29.7858,-84.8752,1.96,0.9,1111122 
NERRS,ioos:station:NOAA.NERRS:apaebwq:1,2016-01-04T20:45:00Z,29.7858,-84.8752,1.96,0.9,1111122 
NERRS,ioos:station:NOAA.NERRS:apaebwq:1,2016-01-04T21:45:00Z,29.7858,-84.8752,1.98,0.8,1111122 
NERRS,ioos:station:NOAA.NERRS:apaebwq:1,2016-01-04T22:45:00Z,29.7858,-84.8752,1.99,0.8,1111122 
NERRS,ioos:station:NOAA.NERRS:apaebwq:1,2016-01-04T23:45:00Z,29.7858,-84.8752,1.99,0.8,1111122 
NERRS,ioos:station:NOAA.NERRS:apaebwq:1,2016-01-05T00:45:00Z,29.7858,-84.8752,2.0,0.8,1111122 
NERRS,ioos:station:NOAA.NERRS:apaebwq:1,2016-01-05T01:45:00Z,29.7858,-84.8752,2.01,0.7,1111122 
NERRS,ioos:station:NOAA.NERRS:apaebwq:1,2016-01-05T02:45:00Z,29.7858,-84.8752,2.03,0.7,1111122 
NERRS,ioos:station:NOAA.NERRS:apaebwq:1,2016-01-05T03:45:00Z,29.7858,-84.8752,1.99,0.7,1111122 
NERRS,ioos:station:NOAA.NERRS:apaebwq:1,2016-01-05T04:45:00Z,29.7858,-84.8752,1.96,1.0,1111122 
NERRS,ioos:station:NOAA.NERRS:apaebwq:1,2016-01-05T05:45:00Z,29.7858,-84.8752,1.94,0.9,1111122 
NERRS,ioos:station:NOAA.NERRS:apaebwq:1,2016-01-05T06:45:00Z,29.7858,-84.8752,1.9,1.1,1111122 
NERRS,ioos:station:NOAA.NERRS:apaebwq:1,2016-01-05T07:45:00Z,29.7858,-84.8752,1.86,1.1,1111122 
NERRS,ioos:station:NOAA.NERRS:apaebwq:1,2016-01-05T09:45:00Z,29.7858,-84.8752,1.75,1.2,1111122 
NERRS,ioos:station:NOAA.NERRS:apaebwq:1,2016-01-05T10:45:00Z,29.7858,-84.8752,1.71,1.1,1111122 
NERRS,ioos:station:NOAA.NERRS:apaebwq:1,2016-01-05T12:45:00Z,29.7858,-84.8752,1.72,1.0,1111122 
NERRS,ioos:station:NOAA.NERRS:apaebwq:1,2016-01-05T13:45:00Z,29.7858,-84.8752,1.76,1.2,1111122 
NERRS,ioos:station:NOAA.NERRS:apaebwq:1,2016-01-05T14:45:00Z,29.7858,-84.8752,1.83,1.1,1111122 
NERRS,ioos:station:NOAA.NERRS:apaebwq:1,2016-01-05T15:45:00Z,29.7858,-84.8752,1.89,0.8,1111122 
NERRS,ioos:station:NOAA.NERRS:apaebwq:1,2016-01-06T14:45:00Z,29.7858,-84.8752,1.74,0.9,1111122 
NERRS,ioos:station:NOAA.NERRS:apaebwq:1,2016-01-06T15:45:00Z,29.7858,-84.8752,1.87,0.8,1111122 
NERRS,ioos:station:NOAA.NERRS:apaebwq:1,2016-01-06T16:45:00Z,29.7858,-84.8752,2.0,0.7,1111122 
NERRS,ioos:station:NOAA.NERRS:apaebwq:1,2016-01-06T17:45:00Z,29.7858,-84.8752,2.06,0.7,1111122 
NERRS,ioos:station:NOAA.NERRS:apaebwq:1,2016-01-06T18:45:00Z,29.7858,-84.8752,2.03,0.6,1111122 
NERRS,ioos:station:NOAA.NERRS:apaebwq:1,2016-01-06T22:45:00Z,29.7858,-84.8752,2.05,0.6,1111122 
NERRS,ioos:station:NOAA.NERRS:apaebwq:1,2016-01-06T23:45:00Z,29.7858,-84.8752,2.05,0.5,1111122 
NERRS,ioos:station:NOAA.NERRS:apaebwq:1,2016-01-07T01:45:00Z,29.7858,-84.8752,2.14,0.3,1111122 
NERRS,ioos:station:NOAA.NERRS:apaebwq:1,2016-01-07T02:45:00Z,29.7858,-84.8752,2.23,0.5,1111122 
NERRS,ioos:station:NOAA.NERRS:apaebwq:1,2016-01-07T03:45:00Z,29.7858,-84.8752,2.27,0.5,1111122 
NERRS,ioos:station:NOAA.NERRS:apaebwq:1,2016-01-07T04:45:00Z,29.7858,-84.8752,2.32,0.5,1111122 
NERRS,ioos:station:NOAA.NERRS:apaebwq:1,2016-01-07T05:45:00Z,29.7858,-84.8752,2.31,0.4,1111122 
NERRS,ioos:station:NOAA.NERRS:apaebwq:1,2016-01-07T06:45:00Z,29.7858,-84.8752,2.25,0.5,1111122 
NERRS,ioos:station:NOAA.NERRS:apaebwq:1,2016-01-07T07:45:00Z,29.7858,-84.8752,2.16,0.6,1111122 
NERRS,ioos:station:NOAA.NERRS:apaebwq:1,2016-01-07T09:45:00Z,29.7858,-84.8752,1.97,0.6,1111122 
NERRS,ioos:station:NOAA.NERRS:apaebwq:1,2016-01-07T10:45:00Z,29.7858,-84.8752,1.91,0.8,1111122 
NERRS,ioos:station:NOAA.NERRS:apaebwq:1,2016-01-07T11:45:00Z,29.7858,-84.8752,1.84,0.7,1111122 
NERRS,ioos:station:NOAA.NERRS:apaebwq:1,2016-01-07T12:45:00Z,29.7858,-84.8752,1.79,0.8,1111122 
NERRS,ioos:station:NOAA.NERRS:apaebwq:1,2016-01-07T13:45:00Z,29.7858,-84.8752,1.76,0.8,1111122 
NERRS,ioos:station:NOAA.NERRS:apaebwq:1,2016-01-07T14:45:00Z,29.7858,-84.8752,1.8,0.8,1111122 
NERRS,ioos:station:NOAA.NERRS:apaebwq:1,2016-01-07T15:45:00Z,29.7858,-84.8752,1.93,0.7,1111122 
NERRS,ioos:station:NOAA.NERRS:apaebwq:1,2016-01-07T17:45:00Z,29.7858,-84.8752,2.08,0.5,1111122 
NERRS,ioos:station:NOAA.NERRS:apaebwq:1,2016-01-07T18:45:00Z,29.7858,-84.8752,2.15,0.5,1111122 
NERRS,ioos:station:NOAA.NERRS:apaebwq:1,2016-01-07T19:45:00Z,29.7858,-84.8752,2.22,0.5,1111122 
NERRS,ioos:station:NOAA.NERRS:apaebwq:1,2016-01-07T20:45:00Z,29.7858,-84.8752,2.25,0.4,1111122 
NERRS,ioos:station:NOAA.NERRS:apaebwq:1,2016-01-07T21:45:00Z,29.7858,-84.8752,2.26,0.4,1111122 
NERRS,ioos:station:NOAA.NERRS:apaebwq:1,2016-01-07T22:45:00Z,29.7858,-84.8752,2.25,0.5,1111122 
NERRS,ioos:station:NOAA.NERRS:apaebwq:1,2016-01-07T23:45:00Z,29.7858,-84.8752,2.23,0.5,1111122 
NERRS,ioos:station:NOAA.NERRS:apaebwq:1,2016-01-08T00:45:00Z,29.7858,-84.8752,2.24,0.5,1111122 
NERRS,ioos:station:NOAA.NERRS:apaebwq:1,2016-01-08T01:45:00Z,29.7858,-84.8752,2.26,0.5,1111122 
NERRS,ioos:station:NOAA.NERRS:apaebwq:1,2016-01-08T02:45:00Z,29.7858,-84.8752,2.29,0.5,1111122 
NERRS,ioos:station:NOAA.NERRS:apaebwq:1,2016-01-08T03:45:00Z,29.7858,-84.8752,2.34,0.3,1111122 
NERRS,ioos:station:NOAA.NERRS:apaebwq:1,2016-01-08T04:45:00Z,29.7858,-84.8752,2.44,0.3,1111122 
NERRS,ioos:station:NOAA.NERRS:apaebwq:1,2016-01-08T05:45:00Z,29.7858,-84.8752,2.49,0.2,1111122 
NERRS,ioos:station:NOAA.NERRS:apaebwq:1,2016-01-08T07:45:00Z,29.7858,-84.8752,2.42,0.1,1111122 
NERRS,ioos:station:NOAA.NERRS:apaebwq:1,2016-01-08T08:45:00Z,29.7858,-84.8752,2.37,0.4,1111122 
NERRS,ioos:station:NOAA.NERRS:apaebwq:1,2016-01-08T09:45:00Z,29.7858,-84.8752,2.24,0.4,1111122 
NERRS,ioos:station:NOAA.NERRS:apaebwq:1,2016-01-08T10:45:00Z,29.7858,-84.8752,2.14,0.4,1111122 
NERRS,ioos:station:NOAA.NERRS:apaebwq:1,2016-01-08T11:45:00Z,29.7858,-84.8752,2.05,0.5,1111122 
NERRS,ioos:station:NOAA.NERRS:apaebwq:1,2016-01-08T12:45:00Z,29.7858,-84.8752,1.98,0.7,1111122 
NERRS,ioos:station:NOAA.NERRS:apaebwq:1,2016-01-08T13:45:00Z,29.7858,-84.8752,1.92,0.7,1111122 
NERRS,ioos:station:NOAA.NERRS:apaebwq:1,2016-01-08T14:45:00Z,29.7858,-84.8752,1.91,0.8,1111122 
NERRS,ioos:station:NOAA.NERRS:apaebwq:1,2016-01-08T15:45:00Z,29.7858,-84.8752,1.93,0.8,1111122 
NERRS,ioos:station:NOAA.NERRS:apaebwq:1,2016-01-08T16:45:00Z,29.7858,-84.8752,2.01,0.7,1111122 
NERRS,ioos:station:NOAA.NERRS:apaebwq:1,2016-01-08T17:45:00Z,29.7858,-84.8752,2.15,0.6,1111122 
NERRS,ioos:station:NOAA.NERRS:apaebwq:1,2016-01-08T18:45:00Z,29.7858,-84.8752,2.28,0.5,1111122 
NERRS,ioos:station:NOAA.NERRS:apaebwq:1,2016-01-08T19:45:00Z,29.7858,-84.8752,2.36,0.4,1111122 
NERRS,ioos:station:NOAA.NERRS:apaebwq:1,2016-01-08T21:45:00Z,29.7858,-84.8752,2.38,0.4,1111122 
NERRS,ioos:station:NOAA.NERRS:apaebwq:1,2016-01-08T22:45:00Z,29.7858,-84.8752,2.35,0.5,1111122 
NERRS,ioos:station:NOAA.NERRS:apaebwq:1,2016-01-08T23:45:00Z,29.7858,-84.8752,2.3,0.5,1111122 
NERRS,ioos:station:NOAA.NERRS:apaebwq:1,2016-01-09T00:45:00Z,29.7858,-84.8752,2.27,0.4,1111122 
NERRS,ioos:station:NOAA.NERRS:apaebwq:1,2016-01-09T01:45:00Z,29.7858,-84.8752,2.24,0.5,1111122 
NERRS,ioos:station:NOAA.NERRS:apaebwq:1,2016-01-09T02:45:00Z,29.7858,-84.8752,2.26,0.5,1111122 
NERRS,ioos:station:NOAA.NERRS:apaebwq:1,2016-01-09T03:45:00Z,29.7858,-84.8752,2.3,0.5,1111122 
NERRS,ioos:station:NOAA.NERRS:apaebwq:1,2016-01-09T04:45:00Z,29.7858,-84.8752,2.35,0.4,1111122 
NERRS,ioos:station:NOAA.NERRS:apaebwq:1,2016-01-09T05:45:00Z,29.7858,-84.8752,2.4,0.4,1111122 
NERRS,ioos:station:NOAA.NERRS:apaebwq:1,2016-01-09T06:45:00Z,29.7858,-84.8752,2.4,0.3,1111122 
NERRS,ioos:station:NOAA.NERRS:apaebwq:1,2016-01-09T07:45:00Z,29.7858,-84.8752,2.39,0.3,1111122 
NERRS,ioos:station:NOAA.NERRS:apaebwq:1,2016-01-09T09:45:00Z,29.7858,-84.8752,2.27,0.3,1111122 
NERRS,ioos:station:NOAA.NERRS:apaebwq:1,2016-01-09T10:45:00Z,29.7858,-84.8752,2.17,0.5,1111122 
NERRS,ioos:station:NOAA.NERRS:apaebwq:1,2016-01-09T11:45:00Z,29.7858,-84.8752,2.06,0.5,1111122 
NERRS,ioos:station:NOAA.NERRS:apaebwq:1,2016-01-09T12:45:00Z,29.7858,-84.8752,1.96,0.7,1111122 
NERRS,ioos:station:NOAA.NERRS:apaebwq:1,2016-01-09T13:45:00Z,29.7858,-84.8752,1.87,0.7,1111122 
NERRS,ioos:station:NOAA.NERRS:apaebwq:1,2016-01-09T14:45:00Z,29.7858,-84.8752,1.8,0.7,1111122 
NERRS,ioos:station:NOAA.NERRS:apaebwq:1,2016-01-09T15:45:00Z,29.7858,-84.8752,1.77,0.7,1111122 
NERRS,ioos:station:NOAA.NERRS:apaebwq:1,2016-01-09T16:45:00Z,29.7858,-84.8752,1.84,0.7,1111122 
NERRS,ioos:station:NOAA.NERRS:apaebwq:1,2016-01-09T17:45:00Z,29.7858,-84.8752,2.01,0.7,1111122 
NERRS,ioos:station:NOAA.NERRS:apaebwq:1,2016-01-09T18:45:00Z,29.7858,-84.8752,2.19,0.6,1111122 
NERRS,ioos:station:NOAA.NERRS:apaebwq:1,2016-01-09T20:45:00Z,29.7858,-84.8752,2.41,0.5,1111122 
NERRS,ioos:station:NOAA.NERRS:apaebwq:1,2016-01-09T21:45:00Z,29.7858,-84.8752,2.44,0.3,1111122 
NERRS,ioos:station:NOAA.NERRS:apaebwq:1,2016-01-09T22:45:00Z,29.7858,-84.8752,2.43,0.3,1111122 
NERRS,ioos:station:NOAA.NERRS:apaebwq:1,2016-01-09T23:45:00Z,29.7858,-84.8752,2.42,0.3,1111122 
NERRS,ioos:station:NOAA.NERRS:apaebwq:1,2016-01-10T00:45:00Z,29.7858,-84.8752,2.41,0.4,1111122 
NERRS,ioos:station:NOAA.NERRS:apaebwq:1,2016-01-10T04:45:00Z,29.7858,-84.8752,2.4,0.6,1111122 
NERRS,ioos:station:NOAA.NERRS:apaebwq:1,2016-01-10T05:45:00Z,29.7858,-84.8752,2.48,0.4,1111122 
NERRS,ioos:station:NOAA.NERRS:apaebwq:1,2016-01-10T06:45:00Z,29.7858,-84.8752,2.53,0.4,1111122 
NERRS,ioos:station:NOAA.NERRS:apaebwq:1,2016-01-10T07:45:00Z,29.7858,-84.8752,2.53,0.4,1111122 
NERRS,ioos:station:NOAA.NERRS:apaebwq:1,2016-01-10T09:45:00Z,29.7858,-84.8752,2.4,0.2,1111122 
NERRS,ioos:station:NOAA.NERRS:apaebwq:1,2016-01-10T10:45:00Z,29.7858,-84.8752,2.26,0.3,1111122 
NERRS,ioos:station:NOAA.NERRS:apaebwq:1,2016-01-10T11:45:00Z,29.7858,-84.8752,2.14,0.4,1111122 
NERRS,ioos:station:NOAA.NERRS:apaebwq:1,2016-01-10T12:45:00Z,29.7858,-84.8752,2.03,0.6,1111122 
NERRS,ioos:station:NOAA.NERRS:apaebwq:1,2016-01-10T13:45:00Z,29.7858,-84.8752,1.93,0.7,1111122 
NERRS,ioos:station:NOAA.NERRS:apaebwq:1,2016-01-10T14:45:00Z,29.7858,-84.8752,1.85,0.6,1111122 
NERRS,ioos:station:NOAA.NERRS:apaebwq:1,2016-01-10T15:45:00Z,29.7858,-84.8752,1.78,0.6,1111122 
NERRS,ioos:station:NOAA.NERRS:apaebwq:1,2016-01-10T16:45:00Z,29.7858,-84.8752,1.74,0.6,1111122 
NERRS,ioos:station:NOAA.NERRS:apaebwq:1,2016-01-10T17:45:00Z,29.7858,-84.8752,1.74,0.6,1111122 
NERRS,ioos:station:NOAA.NERRS:apaebwq:1,2016-01-10T18:45:00Z,29.7858,-84.8752,1.81,0.6,1111122 
NERRS,ioos:station:NOAA.NERRS:apaebwq:1,2016-01-10T20:45:00Z,29.7858,-84.8752,2.07,0.5,1111122 
NERRS,ioos:station:NOAA.NERRS:apaebwq:1,2016-01-10T21:45:00Z,29.7858,-84.8752,2.13,0.5,1111122 
NERRS,ioos:station:NOAA.NERRS:apaebwq:1,2016-01-10T22:45:00Z,29.7858,-84.8752,2.12,0.6,1111122 
NERRS,ioos:station:NOAA.NERRS:apaebwq:1,2016-01-10T23:45:00Z,29.7858,-84.8752,2.08,0.6,1111122 
NERRS,ioos:station:NOAA.NERRS:apaebwq:1,2016-01-11T03:45:00Z,29.7858,-84.8752,1.98,0.4,1111122 
NERRS,ioos:station:NOAA.NERRS:apaebwq:1,2016-01-11T04:45:00Z,29.7858,-84.8752,1.98,0.4,1111122 
NERRS,ioos:station:NOAA.NERRS:apaebwq:1,2016-01-11T05:45:00Z,29.7858,-84.8752,2.0,0.4,1111122 
NERRS,ioos:station:NOAA.NERRS:apaebwq:1,2016-01-11T06:45:00Z,29.7858,-84.8752,2.06,0.3,1111122 
NERRS,ioos:station:NOAA.NERRS:apaebwq:1,2016-01-11T07:45:00Z,29.7858,-84.8752,2.13,0.3,1111122 
NERRS,ioos:station:NOAA.NERRS:apaebwq:1,2016-01-11T09:45:00Z,29.7858,-84.8752,2.07,0.5,1111122 
NERRS,ioos:station:NOAA.NERRS:apaebwq:1,2016-01-11T10:45:00Z,29.7858,-84.8752,1.98,0.4,1111122 
NERRS,ioos:station:NOAA.NERRS:apaebwq:1,2016-01-11T11:45:00Z,29.7858,-84.8752,1.92,0.3,1111122 
NERRS,ioos:station:NOAA.NERRS:apaebwq:1,2016-01-11T12:45:00Z,29.7858,-84.8752,1.84,0.4,1111122 
NERRS,ioos:station:NOAA.NERRS:apaebwq:1,2016-01-11T13:45:00Z,29.7858,-84.8752,1.76,0.6,1111122 
NERRS,ioos:station:NOAA.NERRS:apaebwq:1,2016-01-11T14:45:00Z,29.7858,-84.8752,1.69,0.7,1111122 
NERRS,ioos:station:NOAA.NERRS:apaebwq:1,2016-01-11T17:45:00Z,29.7858,-84.8752,1.63,0.8,1111122 
NERRS,ioos:station:NOAA.NERRS:apaebwq:1,2016-01-11T18:45:00Z,29.7858,-84.8752,1.73,0.7,1111122 
NERRS,ioos:station:NOAA.NERRS:apaebwq:1,2016-01-11T19:45:00Z,29.7858,-84.8752,1.92,0.5,1111122 
NERRS,ioos:station:NOAA.NERRS:apaebwq:1,2016-01-11T20:45:00Z,29.7858,-84.8752,2.09,0.4,1111122 
NERRS,ioos:station:NOAA.NERRS:apaebwq:1,2016-01-11T21:45:00Z,29.7858,-84.8752,2.21,0.4,1111122 
NERRS,ioos:station:NOAA.NERRS:apaebwq:1,2016-01-11T22:45:00Z,29.7858,-84.8752,2.2,0.3,1111122 
NERRS,ioos:station:NOAA.NERRS:apaebwq:1,2016-01-11T23:45:00Z,29.7858,-84.8752,2.18,0.3,1111122 
NERRS,ioos:station:NOAA.NERRS:apaebwq:1,2016-01-12T00:45:00Z,29.7858,-84.8752,2.15,0.3,1111122 
NERRS,ioos:station:NOAA.NERRS:apaebwq:1,2016-01-12T01:45:00Z,29.7858,-84.8752,2.11,0.5,1111122 
NERRS,ioos:station:NOAA.NERRS:apaebwq:1,2016-01-12T02:45:00Z,29.7858,-84.8752,2.09,0.6,1111122 
NERRS,ioos:station:NOAA.NERRS:apaebwq:1,2016-01-12T03:45:00Z,29.7858,-84.8752,2.08,0.6,1111122 
NERRS,ioos:station:NOAA.NERRS:apaebwq:1,2016-01-12T05:45:00Z,29.7858,-84.8752,2.12,0.5,1111122 
NERRS,ioos:station:NOAA.NERRS:apaebwq:1,2016-01-12T06:45:00Z,29.7858,-84.8752,2.19,0.4,1111122 
NERRS,ioos:station:NOAA.NERRS:apaebwq:1,2016-01-12T07:45:00Z,29.7858,-84.8752,2.29,0.4,1111122 
NERRS,ioos:station:NOAA.NERRS:apaebwq:1,2016-01-12T08:45:00Z,29.7858,-84.8752,2.38,0.2,1111122 
NERRS,ioos:station:NOAA.NERRS:apaebwq:1,2016-01-12T09:45:00Z,29.7858,-84.8752,2.35,0.2,1111122 
NERRS,ioos:station:NOAA.NERRS:apaebwq:1,2016-01-12T10:45:00Z,29.7858,-84.8752,2.28,0.3,1111122 
NERRS,ioos:station:NOAA.NERRS:apaebwq:1,2016-01-12T11:45:00Z,29.7858,-84.8752,2.18,0.3,1111122 
NERRS,ioos:station:NOAA.NERRS:apaebwq:1,2016-01-12T12:45:00Z,29.7858,-84.8752,2.07,0.4,1111122 
NERRS,ioos:station:NOAA.NERRS:apaebwq:1,2016-01-12T13:45:00Z,29.7858,-84.8752,1.98,0.4,1111122 
NERRS,ioos:station:NOAA.NERRS:apaebwq:1,2016-01-12T14:45:00Z,29.7858,-84.8752,1.88,0.5,1111122 
NERRS,ioos:station:NOAA.NERRS:apaebwq:1,2016-01-12T15:45:00Z,29.7858,-84.8752,1.8,0.6,1111122 
NERRS,ioos:station:NOAA.NERRS:apaebwq:1,2016-01-12T17:45:00Z,29.7858,-84.8752,1.71,0.7,1111122 
NERRS,ioos:station:NOAA.NERRS:apaebwq:1,2016-01-12T18:45:00Z,29.7858,-84.8752,1.77,0.7,1111122 
NERRS,ioos:station:NOAA.NERRS:apaebwq:1,2016-01-12T19:45:00Z,29.7858,-84.8752,1.92,0.6,1111122 
NERRS,ioos:station:NOAA.NERRS:apaebwq:1,2016-01-12T22:45:00Z,29.7858,-84.8752,2.3,0.4,1111122 
NERRS,ioos:station:NOAA.NERRS:apaebwq:1,2016-01-12T23:45:00Z,29.7858,-84.8752,2.29,0.4,1111122 
NERRS,ioos:station:NOAA.NERRS:apaebwq:1,2016-01-13T00:45:00Z,29.7858,-84.8752,2.22,0.4,1111122 
NERRS,ioos:station:NOAA.NERRS:apaebwq:1,2016-01-13T01:45:00Z,29.7858,-84.8752,2.14,0.6,1111122 
NERRS,ioos:station:NOAA.NERRS:apaebwq:1,2016-01-13T03:45:00Z,29.7858,-84.8752,2.05,0.5,1111122 
NERRS,ioos:station:NOAA.NERRS:apaebwq:1,2016-01-13T04:45:00Z,29.7858,-84.8752,2.02,0.6,1111122 
NERRS,ioos:station:NOAA.NERRS:apaebwq:1,2016-01-13T05:45:00Z,29.7858,-84.8752,2.02,0.6,1111122 
NERRS,ioos:station:NOAA.NERRS:apaebwq:1,2016-01-13T06:45:00Z,29.7858,-84.8752,2.08,0.5,1111122 
NERRS,ioos:station:NOAA.NERRS:apaebwq:1,2016-01-13T07:45:00Z,29.7858,-84.8752,2.16,0.5,1111122 
NERRS,ioos:station:NOAA.NERRS:apaebwq:1,2016-01-13T08:45:00Z,29.7858,-84.8752,2.27,0.5,1111122 
NERRS,ioos:station:NOAA.NERRS:apaebwq:1,2016-01-13T09:45:00Z,29.7858,-84.8752,2.3,0.4,1111122 
NERRS,ioos:station:NOAA.NERRS:apaebwq:1,2016-01-13T10:45:00Z,29.7858,-84.8752,2.25,0.4,1111122 
NERRS,ioos:station:NOAA.NERRS:apaebwq:1,2016-01-13T11:45:00Z,29.7858,-84.8752,2.17,0.5,1111122 
NERRS,ioos:station:NOAA.NERRS:apaebwq:1,2016-01-13T12:45:00Z,29.7858,-84.8752,2.06,0.5,1111122 
NERRS,ioos:station:NOAA.NERRS:apaebwq:1,2016-01-13T13:45:00Z,29.7858,-84.8752,1.97,0.5,1111122 
NERRS,ioos:station:NOAA.NERRS:apaebwq:1,2016-01-13T14:45:00Z,29.7858,-84.8752,1.86,0.6,1111122 
NERRS,ioos:station:NOAA.NERRS:apaebwq:1,2016-01-13T16:45:00Z,29.7858,-84.8752,1.69,0.7,1111122 
NERRS,ioos:station:NOAA.NERRS:apaebwq:1,2016-01-13T17:45:00Z,29.7858,-84.8752,1.64,0.8,1111122 
NERRS,ioos:station:NOAA.NERRS:apaebwq:1,2016-01-13T19:45:00Z,29.7858,-84.8752,1.75,0.7,1111122 
NERRS,ioos:station:NOAA.NERRS:apaebwq:1,2016-01-13T20:45:00Z,29.7858,-84.8752,1.93,0.6,1111122 
NERRS,ioos:station:NOAA.NERRS:apaebwq:1,2016-01-13T21:45:00Z,29.7858,-84.8752,2.09,0.5,1111122 
NERRS,ioos:station:NOAA.NERRS:apaebwq:1,2016-01-13T23:45:00Z,29.7858,-84.8752,2.25,0.4,1111122 
NERRS,ioos:station:NOAA.NERRS:apaebwq:1,2016-01-14T00:45:00Z,29.7858,-84.8752,2.23,0.4,1111122 
NERRS,ioos:station:NOAA.NERRS:apaebwq:1,2016-01-14T01:45:00Z,29.7858,-84.8752,2.18,0.4,1111122 
NERRS,ioos:station:NOAA.NERRS:apaebwq:1,2016-01-14T02:45:00Z,29.7858,-84.8752,2.13,0.6,1111122 
NERRS,ioos:station:NOAA.NERRS:apaebwq:1,2016-01-14T04:45:00Z,29.7858,-84.8752,2.02,0.6,1111122 
NERRS,ioos:station:NOAA.NERRS:apaebwq:1,2016-01-14T05:45:00Z,29.7858,-84.8752,1.97,0.6,1111122 
NERRS,ioos:station:NOAA.NERRS:apaebwq:1,2016-01-14T06:45:00Z,29.7858,-84.8752,1.98,0.6,1111122 
NERRS,ioos:station:NOAA.NERRS:apaebwq:1,2016-01-14T07:45:00Z,29.7858,-84.8752,2.04,0.6,1111122 
NERRS,ioos:station:NOAA.NERRS:apaebwq:1,2016-01-14T09:45:00Z,29.7858,-84.8752,2.25,0.4,1111122 
NERRS,ioos:station:NOAA.NERRS:apaebwq:1,2016-01-14T10:45:00Z,29.7858,-84.8752,2.25,0.4,1111122 
NERRS,ioos:station:NOAA.NERRS:apaebwq:1,2016-01-14T11:45:00Z,29.7858,-84.8752,2.22,0.4,1111122 
NERRS,ioos:station:NOAA.NERRS:apaebwq:1,2016-01-14T12:45:00Z,29.7858,-84.8752,2.16,0.4,1111122 
NERRS,ioos:station:NOAA.NERRS:apaebwq:1,2016-01-14T14:45:00Z,29.7858,-84.8752,2.01,0.6,1111122 
NERRS,ioos:station:NOAA.NERRS:apaebwq:1,2016-01-14T15:45:00Z,29.7858,-84.8752,1.9,0.6,1111122 
NERRS,ioos:station:NOAA.NERRS:apaebwq:1,2016-01-14T16:45:00Z,29.7858,-84.8752,1.81,0.6,1111122 
NERRS,ioos:station:NOAA.NERRS:apaebwq:1,2016-01-14T17:45:00Z,29.7858,-84.8752,1.75,0.7,1111122 
NERRS,ioos:station:NOAA.NERRS:apaebwq:1,2016-01-14T18:45:00Z,29.7858,-84.8752,1.76,0.6,1111122 
NERRS,ioos:station:NOAA.NERRS:apaebwq:1,2016-01-14T19:45:00Z,29.7858,-84.8752,1.89,0.6,1111122 
NERRS,ioos:station:NOAA.NERRS:apaebwq:1,2016-01-14T20:45:00Z,29.7858,-84.8752,2.03,0.6,1111122 
NERRS,ioos:station:NOAA.NERRS:apaebwq:1,2016-01-14T21:45:00Z,29.7858,-84.8752,2.15,0.5,1111122 
NERRS,ioos:station:NOAA.NERRS:apaebwq:1,2016-01-14T22:45:00Z,29.7858,-84.8752,2.25,0.3,1111122 
NERRS,ioos:station:NOAA.NERRS:apaebwq:1,2016-01-14T23:45:00Z,29.7858,-84.8752,2.31,0.2,1111122 
NERRS,ioos:station:NOAA.NERRS:apaebwq:1,2016-01-15T00:45:00Z,29.7858,-84.8752,2.29,0.2,1111122 
NERRS,ioos:station:NOAA.NERRS:apaebwq:1,2016-01-15T01:45:00Z,29.7858,-84.8752,2.24,0.2,1111122 